[[{"header":{"parameterUnit":"m.s-1","parameterCategory":1,"la1":30.2991,"la2":30.254,"lo1":-89.0895,"lo2":-89.0444,"dy":0.0017,"dx":0.0017,"nx":28,"ny":28,"refTime":"2024-06-03T21:00:00:Z","depth":0,"parameterNumber":2,"parameterNumberName":"U-component_of_WINDS"},"data":[0,0,0,0,0,0,0,0,0,0,0,0,0,0,0,0,0,0,0,0,0,0,0,0,0,0,0,0,0,0,0,0,0,0,0,0,0,0,0,0,0,0,0,0,0,0,0,0,0,0,0,0,0,0,0,0,0,0,-1.1605,-1.1604,0,-1.1491,-1.149,-1.1488,-1.1409,-1.1408,-1.1407,-1.1407,-1.1289,-1.1286,-1.1284,0,0,0,0,0,0,0,0,0,0,0,0,0,-1.1756,-1.1753,-1.1606,-1.1604,-1.1603,-1.1491,-1.149,-1.1488,-1.1409,-1.1408,-1.1407,-1.1407,-1.129,-1.1287,-1.1283,0,0,0,0,0,0,0,0,0,0,0,0,0,-1.1671,-1.1753,-1.1606,-1.155,-1.1544,-1.1491,-1.1489,-1.1488,-1.1409,-1.1408,-1.1407,-1.1406,-1.1291,-1.1287,-1.1283,-1.1277,0,0,-1.1271,-1.127,0,0,0,0,0,0,0,0,-1.1676,-1.1665,-1.1559,-1.1553,-1.1546,-1.1463,-1.1499,-1.1417,-1.1409,-1.146,-1.1407,-1.1406,-1.1347,-1.1339,-1.1319,-1.1272,-1.1267,-1.1271,-1.1269,-1.1267,-1.1266,0,0,0,0,0,0,0,-1.1682,-1.167,-1.156,-1.1558,-1.155,-1.153,-1.1517,-1.1483,-1.141,-1.1455,-1.1449,-1.1437,-1.1344,-1.1323,-1.1316,-1.1265,-1.1271,-1.1268,-1.1265,-1.1264,-1.1208,-1.1209,0,0,0,0,0,0,-1.1696,-1.1675,-1.1564,-1.1557,-1.161,-1.1528,-1.1514,-1.1491,-1.141,-1.1397,-1.1438,-1.1434,-1.133,-1.1321,-1.1312,-1.13,-1.1267,-1.1263,-1.1261,-1.1207,-1.1208,-1.1209,0,0,0,0,0,0,-1.17,-1.1687,-1.1568,-1.1614,-1.1598,-1.1527,-1.1502,-1.1489,-1.1468,-1.1397,-1.1384,-1.143,-1.1329,-1.1317,-1.1287,-1.1295,-1.1262,-1.1258,-1.1206,-1.1207,-1.1208,-1.1276,0,0,0,0,0,0,-1.1705,-1.1689,-1.1686,-1.1615,-1.1596,-1.1546,-1.1502,-1.1487,-1.1462,-1.1455,-1.1386,-1.1374,-1.1328,-1.1293,-1.1283,-1.1289,-1.1255,-1.1205,-1.1207,-1.1208,-1.1273,-1.128,-1.1286,0,0,0,0,0,-1.171,-1.171,-1.1686,-1.1673,-1.159,-1.1546,-1.1535,-1.1482,-1.1463,-1.146,-1.1414,-1.1376,-1.1296,-1.129,-1.1278,-1.1283,-1.1204,-1.1206,-1.1208,-1.127,-1.1279,-1.1285,0,0,0,0,0,0,-1.1783,-1.1699,-1.1672,-1.1649,-1.1605,-1.1533,-1.1527,-1.1492,-1.1453,-1.1448,-1.1384,-1.1369,-1.1345,-1.1311,-1.1307,-1.1274,-1.1245,-1.1245,-1.1297,-1.1304,-1.131,-1.1319,-1.1252,0,0,0,0,0,-1.1797,-1.1768,-1.1696,-1.1682,-1.1662,-1.1598,-1.1577,-1.154,-1.1492,-1.1473,-1.1425,-1.138,-1.1345,-1.1322,-1.1286,-1.1268,-1.1252,-1.1266,-1.1272,-1.1277,-1.1278,-1.1266,-1.1271,-1.1215,-1.1215,-1.1215,0,0,-1.1824,-1.1774,-1.176,-1.1695,-1.1657,-1.1629,-1.1583,-1.1555,-1.1533,-1.1469,-1.1437,-1.1401,-1.1346,-1.1323,-1.131,-1.1293,-1.129,-1.128,-1.1285,-1.1282,-1.1268,-1.1274,-1.1279,-1.1216,-1.1216,-1.1216,0,0,-1.1859,-1.1819,-1.1802,-1.1766,-1.1709,-1.1667,-1.1663,-1.1596,-1.157,-1.1537,-1.1488,-1.1462,-1.1402,-1.1365,-1.1338,-1.1361,-1.1325,-1.1351,-1.1383,-1.1373,-1.1377,-1.1381,-1.1389,-1.1392,-1.1352,-1.1352,-1.1352,0,-1.19,-1.1855,-1.1799,-1.1774,-1.1747,-1.1688,-1.1671,-1.1638,-1.1572,-1.1555,-1.1538,-1.1462,-1.1421,-1.1388,-1.1394,-1.1374,-1.1368,-1.1358,-1.1381,-1.1384,-1.1387,-1.1394,-1.1397,-1.1355,-1.1355,-1.1354,-1.1354,0,-1.1908,-1.1878,-1.1872,-1.1811,-1.1783,-1.1763,-1.1703,-1.1682,-1.1648,-1.1608,-1.1576,-1.1525,-1.1477,-1.1467,-1.1432,-1.1429,-1.1421,-1.1393,-1.1363,-1.1397,-1.1402,-1.1404,-1.136,-1.1359,-1.1358,-1.1357,0,0,-1.1985,-1.1893,-1.1892,-1.1864,-1.1797,-1.1773,-1.175,-1.1703,-1.1687,-1.1644,-1.1623,-1.1574,-1.1549,-1.1519,-1.148,-1.1471,-1.1492,-1.1444,-1.1442,-1.1455,-1.1485,-1.1506,-1.151,-1.1468,-1.1469,-1.1469,-1.149,0,-1.201,-1.1965,-1.1915,-1.1888,-1.1859,-1.1803,-1.1783,-1.1741,-1.1703,-1.1673,-1.1631,-1.1598,-1.1567,-1.1549,-1.1537,-1.1492,-1.1497,-1.149,-1.1448,-1.1447,-1.1463,-1.1513,-1.1535,-1.1557,-1.1492,-1.1492,-1.1492,0,-1.2033,-1.1993,-1.1964,-1.19,-1.1886,-1.1869,-1.1823,-1.1796,-1.1746,-1.1719,-1.1687,-1.1645,-1.1618,-1.1593,-1.1554,-1.1551,-1.1531,-1.1506,-1.1506,-1.1499,-1.1472,-1.1508,-1.1563,-1.1566,-1.1495,-1.1495,-1.1495,0,-1.2092,-1.2031,-1.2006,-1.1983,-1.1908,-1.1898,-1.1866,-1.1816,-1.1791,-1.1751,-1.1734,-1.1692,-1.1668,-1.1636,-1.1584,-1.157,-1.1552,-1.1521,-1.1529,-1.153,-1.1527,-1.1528,-1.158,-1.1515,-1.1515,-1.1515,-1.1515,0,-1.2125,-1.2109,-1.2031,-1.2016,-1.1997,-1.1938,-1.1921,-1.1884,-1.184,-1.1816,-1.1765,-1.1744,-1.1677,-1.1648,-1.1608,-1.1583,-1.1573,-1.155,-1.1539,-1.1554,-1.1557,-1.154,-1.1537,-1.1516,-1.1515,-1.1515,-1.1515,0,-1.2188,-1.2135,-1.2104,-1.2036,-1.2018,-1.2007,-1.1949,-1.1932,-1.1892,-1.1862,-1.1852,-1.1789,-1.1752,-1.1698,-1.1644,-1.1617,-1.1599,-1.1581,-1.1616,-1.1609,-1.162,-1.1619,-1.1662,-1.1664,-1.1599,-1.16,-1.16,0,-1.2212,-1.2199,-1.213,-1.211,-1.2081,-1.205,-1.2025,-1.1968,-1.1944,-1.1887,-1.1877,-1.1836,-1.18,-1.1745,-1.1694,-1.1653,-1.1634,-1.1652,-1.1628,-1.1643,-1.1634,-1.1636,-1.1634,-1.1658,-1.1659,-1.1659,-1.166,0,-1.2261,-1.2236,-1.2202,-1.2159,-1.2131,-1.2094,-1.2055,-1.2042,-1.1976,-1.1952,-1.1914,-1.1887,-1.1833,-1.1793,-1.1746,-1.1713,-1.1676,-1.1668,-1.1668,-1.1683,-1.1703,-1.1692,-1.1631,-1.1667,-1.1667,-1.1666,-1.1666,-1.1665,-1.2305,-1.2291,-1.224,-1.2204,-1.2169,-1.2134,-1.2115,-1.2072,-1.204,-1.1992,-1.196,-1.1924,-1.1875,-1.1807,-1.1776,-1.1747,-1.1731,-1.1731,-1.173,-1.1731,-1.1737,-1.1708,-1.1738,-1.1738,-1.1738,-1.1738,-1.1737,0,-1.2352,-1.2317,-1.2284,-1.2231,-1.2203,-1.2171,-1.2126,-1.2105,-1.2074,-1.2032,-1.1998,-1.1955,-1.1917,-1.1863,-1.1821,-1.1808,-1.179,-1.1799,-1.1799,-1.1792,-1.1753,-1.1758,-1.1814,-1.1814,-1.1814,-1.1814,-1.1814,-1.1814,-1.2373,-1.2347,-1.2316,-1.2272,-1.2237,-1.2201,-1.2179,-1.2146,-1.2112,-1.2066,-1.2034,-1.2,-1.1953,-1.1907,-1.187,-1.1856,-1.1842,-1.1857,-1.1837,-1.1802,-1.1795,-1.1788,-1.1792,-1.1854,-1.1855,-1.1878,-1.1878,-1.1878]},{"header":{"parameterUnit":"m.s-1","parameterCategory":1,"la1":30.2991,"la2":30.254,"lo1":-89.0895,"lo2":-89.0444,"dy":0.0017,"dx":0.0017,"nx":28,"ny":28,"refTime":"2024-06-03T21:00:00:Z","depth":0,"parameterNumber":3,"parameterNumberName":"V-component_of_WINDS"},"data":[0,0,0,0,0,0,0,0,0,0,0,0,0,0,0,0,0,0,0,0,0,0,0,0,0,0,0,0,0,0,0,0,0,0,0,0,0,0,0,0,0,0,0,0,0,0,0,0,0,0,0,0,0,0,0,0,0,0,4.9047,4.9046,0,4.9025,4.9025,4.9025,4.897,4.8969,4.8968,4.8967,4.8947,4.8947,4.8948,0,0,0,0,0,0,0,0,0,0,0,0,0,4.9042,4.9043,4.9047,4.9046,4.9046,4.9025,4.9025,4.9024,4.8971,4.8969,4.8968,4.8966,4.8946,4.8947,4.8948,0,0,0,0,0,0,0,0,0,0,0,0,0,4.9035,4.9043,4.9047,4.9017,4.9014,4.9025,4.9025,4.9024,4.8971,4.8969,4.8967,4.8966,4.8946,4.8947,4.8948,4.8987,0,0,4.895,4.895,0,0,0,0,0,0,0,0,4.9036,4.9035,4.9021,4.9019,4.9015,4.8999,4.9016,4.9012,4.8971,4.8987,4.8967,4.8965,4.8965,4.8964,4.8964,4.8986,4.8985,4.895,4.8951,4.8951,4.8951,0,0,0,0,0,0,0,4.9036,4.9036,4.9038,4.9021,4.9018,4.9005,4.9002,4.9015,4.8986,4.8986,4.8982,4.898,4.8963,4.8964,4.8963,4.8985,4.895,4.8951,4.8951,4.8952,4.9038,4.904,0,0,0,0,0,0,4.9041,4.9037,4.9039,4.9037,4.9021,4.9006,4.9003,4.9006,4.8986,4.8981,4.8981,4.8977,4.8963,4.8963,4.8962,4.9007,4.8951,4.8952,4.8952,4.9036,4.9038,4.904,0,0,0,0,0,0,4.9041,4.9041,4.904,4.9036,4.9035,4.9008,4.9012,4.9006,4.9006,4.8983,4.8977,4.8987,4.8962,4.8961,4.8981,4.9005,4.8952,4.8953,4.9034,4.9037,4.9039,4.9097,0,0,0,0,0,0,4.9041,4.9042,4.9056,4.9037,4.9035,4.9058,4.9013,4.9007,4.9008,4.9002,4.8986,4.8982,4.896,4.898,4.8982,4.9006,4.8953,4.9032,4.9035,4.9038,4.9092,4.9101,4.9108,0,0,0,0,0,4.9041,4.9073,4.9057,4.9058,4.9052,4.906,4.9059,4.9033,4.901,4.9024,4.9009,4.8982,4.9003,4.8983,4.8984,4.9008,4.903,4.9034,4.9038,4.9089,4.9099,4.9108,0,0,0,0,0,0,4.9097,4.907,4.9052,4.9079,4.9072,4.9051,4.9068,4.9045,4.9045,4.904,4.9008,4.9005,4.903,4.9021,4.8999,4.9045,4.9012,4.9017,4.905,4.906,4.9067,4.9069,4.8954,0,0,0,0,0,4.9112,4.912,4.9097,4.9123,4.912,4.9095,4.9097,4.9078,4.907,4.9067,4.9053,4.9046,4.9051,4.9055,4.9058,4.9091,4.9087,4.9108,4.9116,4.9123,4.9127,4.9144,4.9153,4.9054,4.9054,4.9054,0,0,4.9145,4.9131,4.9138,4.9134,4.9126,4.9135,4.9093,4.9105,4.9111,4.9069,4.9086,4.9076,4.9067,4.9093,4.9104,4.9087,4.9154,4.9128,4.9134,4.9134,4.9149,4.9158,4.9167,4.9056,4.9056,4.9056,0,0,4.9207,4.9198,4.9218,4.9212,4.92,4.9183,4.9189,4.9171,4.9162,4.9179,4.9147,4.9155,4.9164,4.9159,4.9157,4.9219,4.9194,4.9221,4.9262,4.9278,4.9286,4.9293,4.9315,4.9323,4.9225,4.9225,4.9225,0,4.9249,4.9261,4.9232,4.9246,4.9245,4.9206,4.9227,4.9222,4.9213,4.9214,4.9194,4.9205,4.9196,4.922,4.9235,4.9235,4.924,4.9222,4.9287,4.9294,4.93,4.932,4.9328,4.9228,4.9228,4.9228,4.9227,0,4.9312,4.9321,4.9339,4.933,4.9332,4.9349,4.9323,4.9328,4.9309,4.9294,4.9312,4.93,4.93,4.9305,4.9286,4.9327,4.9316,4.9293,4.9258,4.9313,4.9331,4.9339,4.9233,4.9232,4.9231,4.923,0,0,4.9409,4.9384,4.9392,4.9387,4.9372,4.9379,4.9395,4.9394,4.9399,4.9394,4.9406,4.9415,4.9393,4.9391,4.9372,4.9386,4.9435,4.9361,4.936,4.9375,4.9479,4.9497,4.9506,4.9419,4.9421,4.9422,4.948,0,4.9468,4.9493,4.9467,4.9497,4.9505,4.9469,4.9483,4.9475,4.9462,4.9467,4.9453,4.9459,4.943,4.9429,4.9441,4.9427,4.9456,4.9422,4.9431,4.9431,4.9434,4.9516,4.9534,4.959,4.9487,4.9488,4.9489,0,4.954,4.9538,4.9568,4.9551,4.9554,4.9566,4.9564,4.9569,4.956,4.9549,4.9548,4.9524,4.9539,4.9506,4.9526,4.9503,4.9505,4.9499,4.95,4.95,4.9463,4.9517,4.9607,4.9615,4.95,4.9499,4.9499,0,4.9607,4.9612,4.9631,4.9628,4.9609,4.9619,4.9611,4.96,4.9602,4.96,4.96,4.9601,4.9601,4.9602,4.9579,4.9557,4.9602,4.9567,4.9593,4.9594,4.9604,4.9603,4.9695,4.9606,4.9606,4.9606,4.9606,0,4.9675,4.9695,4.9661,4.9672,4.9694,4.9665,4.9687,4.9676,4.9667,4.9676,4.9645,4.9655,4.9624,4.9631,4.9613,4.9632,4.9633,4.9625,4.962,4.9627,4.9628,4.9628,4.9623,4.9608,4.9608,4.9607,4.9607,0,4.9754,4.9731,4.9749,4.973,4.9725,4.9742,4.9725,4.9735,4.972,4.9732,4.9733,4.971,4.9715,4.9693,4.9695,4.9683,4.9711,4.97,4.9714,4.9711,4.9738,4.9736,4.9832,4.9843,4.9748,4.9749,4.975,0,4.9798,4.9813,4.9795,4.9798,4.9792,4.9798,4.9799,4.9772,4.9774,4.9765,4.9777,4.978,4.9781,4.9792,4.9775,4.9777,4.9765,4.9799,4.9765,4.9772,4.9765,4.9765,4.9766,4.9806,4.9807,4.9808,4.9809,0,4.988,4.9868,4.987,4.9869,4.9871,4.9869,4.9864,4.9869,4.984,4.9844,4.9849,4.985,4.9852,4.9856,4.9854,4.9847,4.9823,4.982,4.9826,4.9833,4.984,4.9836,4.9733,4.9817,4.9816,4.9816,4.9815,4.9815,4.9943,4.9954,4.9942,4.9946,4.994,4.9937,4.9945,4.9931,4.9934,4.9933,4.9917,4.9926,4.9917,4.9912,4.9907,4.9913,4.9898,4.9907,4.9909,4.9911,4.9916,4.984,4.9913,4.9913,4.9912,4.9912,4.9912,0,5.0022,5.0013,5.0017,5.0011,5.0014,4.9991,4.9986,4.999,4.9997,4.9991,4.9992,4.9998,5.0002,4.9985,4.9987,4.9995,4.9984,4.9996,4.9995,4.9994,4.993,4.9924,5.0005,5.0005,5.0005,5.0005,5.0005,5.0005,5.0064,5.0081,5.0068,5.0082,5.0073,5.0081,5.0079,5.0076,5.0071,5.0079,5.0081,5.007,5.006,5.006,5.0062,5.0058,5.0059,5.0075,5.0067,5.0007,4.9998,4.999,4.9984,5.0076,5.0076,5.013,5.013,5.0131]}]]